Back to catalog

STARLINK-32952

AliveCommunicationsVLEO
NORAD 63146·PAYLOAD·🇺🇸 United States

Launched Mar 3, 2025 from Cape Canaveral Space Force Station

Loading…

Next Passes (next 24 hours)

TLE

FreshSource: CelesTrak SupGP

Epoch: Sep 14, 2026, 14:30 UTC

1 63146C 25043Q   26257.60465278 -.00055865  00000+0 -20223-2 0  2572
2 63146  43.0035  36.1388 0001637 270.9034 162.3203 15.27623652    15

Track STARLINK-32952 in real time with AllMySat

Download on the App Store